Time,TemperatureF,DewpointF,PressureIn,WindDirection,WindDirectionDegrees,WindSpeedMPH,WindSpeedGustMPH,Humidity,HourlyPrecipIn,Conditions,Clouds,dailyrainin,SoftwareType,DateUTC
2013-02-01 00:00:00,36.9,24.3,29.92,SSW,208,12.0,20.0,60,0.00,,,0.00,Wunderground v.1.15,2013-02-01 05:00:00,
2013-02-01 00:01:00,36.9,24.3,29.92,ENE,76,12.0,20.0,60,0.00,,,0.00,Wunderground v.1.15,2013-02-01 05:01:00,
2013-02-01 00:03:00,37.1,24.5,29.92,West,259,12.0,20.0,60,0.00,,,0.00,Wunderground v.1.15,2013-02-01 05:03:00,
2013-02-01 00:05:00,37.2,24.6,29.92,SSE,148,12.0,44.0,60,0.00,,,0.00,Wunderground v.1.15,2013-02-01 05:05:00,
2013-02-01 00:10:00,37.4,24.8,29.92,NNW,333,16.0,16.0,60,0.00,,,0.00,Wunderground v.1.15,2013-02-01 05:10:00,
2013-02-01 00:15:00,37.4,24.8,29.92,SW,216,18.0,36.0,60,0.00,,,0.00,Wunderground v.1.15,2013-02-01 05:15:00,
2013-02-01 00:20:00,37.4,24.8,29.92,West,278,14.0,14.0,60,0.00,,,0.00,Wunderground v.1.15,2013-02-01 05:20:00,
2013-02-01 00:25:00,37.7,25.1,29.92,ESE,123,17.0,17.0,60,0.00,,,0.00,Wunderground v.1.15,2013-02-01 05:25:00,
2013-02-01 00:30:00,37.6,25.0,29.93,SSE,165,15.0,15.0,60,0.00,,,0.00,Wunderground v.1.15,2013-02-01 05:30:00,
2013-02-01 00:35:00,37.7,24.6,29.93,SSE,161,11.0,29.0,59,0.00,,,0.00,Wunderground v.1.15,2013-02-01 05:35:00,
2013-02-01 00:41:00,37.6,25.0,29.93,SE,130,12.0,20.0,60,0.00,,,0.00,Wunderground v.1.15,2013-02-01 05:41:00,
2013-02-01 00:47:00,37.6,25.0,29.93,SSE,168,12.0,20.0,60,0.00,,,0.00,Wunderground v.1.15,2013-02-01 05:47:00,
2013-02-01 00:52:00,37.7,25.5,29.93,SSE,163,9.0,16.0,61,0.00,,,0.00,Wunderground v.1.15,2013-02-01 05:52:00,
2013-02-01 00:58:00,37.6,25.4,29.93,SSE,155,8.0,39.0,61,0.00,,,0.00,Wunderground v.1.15,2013-02-01 05:58:00,
2013-02-01 01:03:00,37.7,25.5,29.93,South,185,10.0,15.0,61,0.00,,,0.00,Wunderground v.1.15,2013-02-01 06:03:00,
2013-02-01 01:08:00,37.7,25.1,29.93,South,170,9.0,17.0,60,0.00,,,0.00,Wunderground v.1.15,2013-02-01 06:08:00,
2013-02-01 01:15:00,37.7,25.1,29.91,WNW,289,10.0,30.0,60,0.00,,,0.01,Wunderground v.1.15,2013-02-01 06:15:00,
2013-02-01 01:20:00,37.6,25.0,29.91,WNW,298,10.0,10.0,60,0.00,,,0.01,Wunderground v.1.15,2013-02-01 06:20:00,
2013-02-01 01:25:00,37.6,25.4,29.91,NW,313,8.0,15.0,61,0.00,,,0.01,Wunderground v.1.15,2013-02-01 06:25:00,
2013-02-01 01:31:00,37.9,25.2,29.91,SSE,154,10.0,15.0,60,0.00,,,0.01,Wunderground v.1.15,2013-02-01 06:31:00,
2013-02-01 01:36:00,37.7,25.1,29.91,West,265,8.0,15.0,60,0.00,,,0.01,Wunderground v.1.15,2013-02-01 06:36:00,
2013-02-01 01:41:00,37.9,26.0,29.91,NW,326,8.0,15.0,62,0.00,,,0.01,Wunderground v.1.15,2013-02-01 06:41:00,
2013-02-01 01:47:00,37.9,25.2,29.91,West,259,5.0,15.0,60,0.00,,,0.01,Wunderground v.1.15,2013-02-01 06:47:00,
2013-02-01 01:52:00,37.9,26.0,29.91,West,276,3.0,15.0,62,0.00,,,0.01,Wunderground v.1.15,2013-02-01 06:52:00,
2013-02-01 01:57:00,38.0,25.3,29.90,NW,309,6.0,24.0,60,0.00,,,0.01,Wunderground v.1.15,2013-02-01 06:57:00,
2013-02-01 02:03:00,38.2,25.9,29.90,SSE,161,8.0,15.0,61,0.00,,,0.01,Wunderground v.1.15,2013-02-01 07:03:00,
2013-02-01 02:08:00,38.4,25.7,29.90,SW,223,9.0,30.0,60,0.00,,,0.01,Wunderground v.1.15,2013-02-01 07:08:00,
2013-02-01 02:13:00,38.5,25.8,29.91,SE,131,9.0,15.0,60,0.00,,,0.01,Wunderground v.1.15,2013-02-01 07:13:00,
2013-02-01 02:18:00,38.5,26.2,29.91,WNW,298,7.0,15.0,61,0.00,,,0.01,Wunderground v.1.15,2013-02-01 07:18:00,
2013-02-01 02:23:00,38.6,26.3,29.91,NW,321,12.0,41.0,61,0.00,,,0.01,Wunderground v.1.15,2013-02-01 07:23:00,
2013-02-01 02:29:00,38.6,26.3,29.91,South,171,12.0,41.0,61,0.00,,,0.01,Wunderground v.1.15,2013-02-01 07:29:00,
2013-02-01 02:34:00,38.5,26.2,29.91,South,170,10.0,30.0,61,0.00,,,0.01,Wunderground v.1.15,2013-02-01 07:34:00,
2013-02-01 02:39:00,38.6,26.3,29.91,WNW,294,9.0,30.0,61,0.00,,,0.01,Wunderground v.1.15,2013-02-01 07:39:00,
2013-02-01 02:44:00,38.6,26.7,29.91,SSE,158,7.0,15.0,62,0.00,,,0.01,Wunderground v.1.15,2013-02-01 07:44:00,
2013-02-01 02:50:00,38.5,27.0,29.91,NW,313,7.0,15.0,63,0.00,,,0.01,Wunderground v.1.15,2013-02-01 07:50:00,
2013-02-01 02:55:00,38.4,26.9,29.91,SSE,156,6.0,15.0,63,0.00,,,0.01,Wunderground v.1.15,2013-02-01 07:55:00,
2013-02-01 03:01:00,38.4,26.9,29.90,WNW,288,7.0,16.0,63,0.00,,,0.01,Wunderground v.1.15,2013-02-01 08:01:00,
2013-02-01 03:06:00,38.4,26.9,29.90,West,278,7.0,16.0,63,0.00,,,0.01,Wunderground v.1.15,2013-02-01 08:06:00,
2013-02-01 03:11:00,38.2,27.5,29.90,WNW,298,5.0,15.0,65,0.00,,,0.01,Wunderground v.1.15,2013-02-01 08:11:00,
2013-02-01 03:16:00,38.2,27.5,29.89,WSW,255,5.0,15.0,65,0.00,,,0.01,Wunderground v.1.15,2013-02-01 08:16:00,
2013-02-01 03:21:00,38.2,27.5,29.89,NW,304,5.0,7.0,65,0.00,,,0.01,Wunderground v.1.15,2013-02-01 08:21:00,
2013-02-01 03:27:00,38.2,27.5,29.90,SSE,150,6.0,15.0,65,0.00,,,0.01,Wunderground v.1.15,2013-02-01 08:27:00,
2013-02-01 03:32:00,38.1,27.7,29.90,SE,146,7.0,15.0,66,0.00,,,0.01,Wunderground v.1.15,2013-02-01 08:32:00,
2013-02-01 03:37:00,38.0,27.6,29.90,ESE,112,8.0,22.0,66,0.00,,,0.01,Wunderground v.1.15,2013-02-01 08:37:00,
2013-02-01 03:42:00,37.8,28.2,29.88,WNW,291,9.0,15.0,68,0.00,,,0.01,Wunderground v.1.15,2013-02-01 08:42:00,
2013-02-01 03:47:00,37.7,28.1,29.88,WNW,290,9.0,15.0,68,0.00,,,0.01,Wunderground v.1.15,2013-02-01 08:47:00,
2013-02-01 03:52:00,37.7,28.4,29.88,South,178,12.0,22.0,69,0.00,,,0.01,Wunderground v.1.15,2013-02-01 08:52:00,
2013-02-01 03:57:00,37.5,28.2,29.88,SW,229,13.0,24.0,69,0.00,,,0.01,Wunderground v.1.15,2013-02-01 08:57:00,
2013-02-01 04:03:00,37.5,28.2,29.88,WNW,282,11.0,40.0,69,0.00,,,0.01,Wunderground v.1.15,2013-02-01 09:03:00,
2013-02-01 04:09:00,37.3,28.8,29.88,SE,125,10.0,40.0,71,0.00,,,0.01,Wunderground v.1.15,2013-02-01 09:09:00,
2013-02-01 04:15:00,37.3,28.8,29.89,NNW,328,8.0,15.0,71,0.00,,,0.01,Wunderground v.1.15,2013-02-01 09:15:00,
2013-02-01 04:20:00,37.1,29.2,29.89,South,173,10.0,15.0,73,0.00,,,0.02,Wunderground v.1.15,2013-02-01 09:20:00,
2013-02-01 04:25:00,36.8,29.6,29.89,NW,326,11.0,15.0,75,0.00,,,0.02,Wunderground v.1.15,2013-02-01 09:25:00,
2013-02-01 04:30:00,36.5,29.3,29.89,NW,319,9.0,15.0,75,0.00,,,0.02,Wunderground v.1.15,2013-02-01 09:30:00,
2013-02-01 04:35:00,36.2,30.0,29.89,NW,313,9.0,15.0,78,0.00,,,0.02,Wunderground v.1.15,2013-02-01 09:35:00,
2013-02-01 04:40:00,35.9,30.0,29.89,NW,309,7.0,7.0,79,0.00,,,0.02,Wunderground v.1.15,2013-02-01 09:40:00,
2013-02-01 04:45:00,35.6,30.0,29.89,SSW,202,6.0,15.0,80,0.00,,,0.02,Wunderground v.1.15,2013-02-01 09:45:00,
2013-02-01 04:51:00,35.3,30.4,29.89,WSW,237,5.0,15.0,82,0.00,,,0.02,Wunderground v.1.15,2013-02-01 09:51:00,
2013-02-01 04:56:00,35.0,29.8,29.89,West,281,8.0,18.0,81,0.00,,,0.02,Wunderground v.1.15,2013-02-01 09:56:00,
2013-02-01 05:01:00,34.9,28.7,29.89,NE,38,13.0,13.0,78,0.00,,,0.02,Wunderground v.1.15,2013-02-01 10:01:00,
2013-02-01 05:06:00,35.1,26.6,29.89,SE,144,16.0,16.0,71,0.00,,,0.02,Wunderground v.1.15,2013-02-01 10:06:00,
2013-02-01 05:11:00,35.2,26.4,29.89,ENE,67,13.0,23.0,70,0.00,,,0.02,Wunderground v.1.15,2013-02-01 10:11:00,
2013-02-01 05:16:00,35.2,25.0,29.90,SSE,155,13.0,42.0,66,0.00,,,0.02,Wunderground v.1.15,2013-02-01 10:16:00,
2013-02-01 05:21:00,35.0,24.4,29.90,NNW,332,17.0,17.0,65,0.00,,,0.02,Wunderground v.1.15,2013-02-01 10:21:00,
2013-02-01 05:26:00,34.7,24.9,29.90,NNW,348,13.0,17.0,67,0.00,,,0.02,Wunderground v.1.15,2013-02-01 10:26:00,
2013-02-01 05:31:00,34.4,24.6,29.90,North,349,8.0,15.0,67,0.00,,,0.02,Wunderground v.1.15,2013-02-01 10:31:00,
2013-02-01 05:36:00,34.0,23.8,29.90,NNW,344,11.0,26.0,66,0.00,,,0.02,Wunderground v.1.15,2013-02-01 10:36:00,
2013-02-01 05:42:00,33.7,23.9,29.92,West,259,10.0,16.0,67,0.00,,,0.02,Wunderground v.1.15,2013-02-01 10:42:00,
2013-02-01 05:48:00,33.2,21.2,29.92,SSW,198,13.0,39.0,61,0.00,,,0.02,Wunderground v.1.15,2013-02-01 10:48:00,
2013-02-01 05:53:00,32.7,21.1,29.92,WNW,284,14.0,16.0,62,0.00,,,0.02,Wunderground v.1.15,2013-02-01 10:53:00,
2013-02-01 05:58:00,32.1,20.2,29.92,NNW,340,12.0,28.0,61,0.00,,,0.02,Wunderground v.1.15,2013-02-01 10:58:00,
2013-02-01 06:03:00,31.8,19.9,29.92,NW,324,10.0,15.0,61,0.00,,,0.02,Wunderground v.1.15,2013-02-01 11:03:00,
2013-02-01 06:08:00,31.5,20.0,29.92,NNW,346,7.0,15.0,62,0.00,,,0.02,Wunderground v.1.15,2013-02-01 11:08:00,
2013-02-01 06:13:00,31.1,20.3,29.94,NNW,348,8.0,15.0,64,0.00,,,0.02,Wunderground v.1.15,2013-02-01 11:13:00,
2013-02-01 06:19:00,30.7,20.7,29.94,NNW,333,8.0,15.0,66,0.00,,,0.02,Wunderground v.1.15,2013-02-01 11:19:00,
2013-02-01 06:24:00,30.2,21.2,29.94,NW,321,10.0,21.0,69,0.00,,,0.02,Wunderground v.1.15,2013-02-01 11:24:00,
2013-02-01 06:29:00,29.9,20.3,29.95,WNW,292,12.0,25.0,67,0.00,,,0.02,Wunderground v.1.15,2013-02-01 11:29:00,
2013-02-01 06:34:00,29.5,18.8,29.95,WNW,295,15.0,30.0,64,0.00,,,0.02,Wunderground v.1.15,2013-02-01 11:34:00,
2013-02-01 06:39:00,29.1,16.5,29.95,WNW,290,21.0,32.0,59,0.00,,,0.02,Wunderground v.1.15,2013-02-01 11:39:00,
2013-02-01 06:44:00,28.8,14.2,29.97,NW,315,22.0,23.0,54,0.00,,,0.02,Wunderground v.1.15,2013-02-01 11:44:00,
2013-02-01 06:49:00,28.5,14.4,29.97,NW,318,16.0,23.0,55,0.00,,,0.02,Wunderground v.1.15,2013-02-01 11:49:00,
2013-02-01 06:55:00,28.0,14.3,29.97,North,360,14.0,26.0,56,0.00,,,0.02,Wunderground v.1.15,2013-02-01 11:55:00,
2013-02-01 07:00:00,27.6,15.5,29.98,NW,313,15.0,18.0,60,0.00,,,0.02,Wunderground v.1.15,2013-02-01 12:00:00,
2013-02-01 07:05:00,27.3,14.8,29.98,North,355,20.0,33.0,59,0.00,,,0.02,Wunderground v.1.15,2013-02-01 12:05:00,
2013-02-01 07:10:00,27.0,13.8,29.98,NW,315,20.0,20.0,57,0.00,,,0.02,Wunderground v.1.15,2013-02-01 12:10:00,
2013-02-01 07:15:00,26.8,13.6,29.98,NNW,334,16.0,20.0,57,0.00,,,0.02,Wunderground v.1.15,2013-02-01 12:15:00,
2013-02-01 07:20:00,26.6,13.4,29.98,WNW,302,16.0,16.0,57,0.00,,,0.02,Wunderground v.1.15,2013-02-01 12:20:00,
2013-02-01 07:26:00,26.3,11.9,29.98,NW,304,18.0,43.0,54,0.00,,,0.02,Wunderground v.1.15,2013-02-01 12:26:00,
2013-02-01 07:31:00,26.1,10.4,29.99,WNW,302,20.0,20.0,51,0.00,,,0.02,Wunderground v.1.15,2013-02-01 12:31:00,
2013-02-01 07:36:00,25.8,8.8,29.99,WNW,300,21.0,26.0,48,0.00,,,0.02,Wunderground v.1.15,2013-02-01 12:36:00,
2013-02-01 07:41:00,25.5,8.5,29.99,WSW,243,20.0,29.0,48,0.00,,,0.02,Wunderground v.1.15,2013-02-01 12:41:00,
2013-02-01 07:46:00,25.3,8.3,29.99,NW,317,20.0,29.0,48,0.00,,,0.02,Wunderground v.1.15,2013-02-01 12:46:00,
2013-02-01 07:51:00,25.1,7.2,29.99,NW,313,22.0,29.0,46,0.00,,,0.02,Wunderground v.1.15,2013-02-01 12:51:00,
2013-02-01 07:56:00,25.0,6.6,29.99,WSW,257,26.0,38.0,45,0.00,,,0.02,Wunderground v.1.15,2013-02-01 12:56:00,
2013-02-01 08:01:00,25.0,6.6,30.01,NNW,331,28.0,28.0,45,0.00,,,0.02,Wunderground v.1.15,2013-02-01 13:01:00,
2013-02-01 08:06:00,25.1,7.2,30.01,NW,317,27.0,33.0,46,0.00,,,0.02,Wunderground v.1.15,2013-02-01 13:06:00,
2013-02-01 08:12:00,25.2,7.8,30.02,NW,310,25.0,35.0,47,0.00,,,0.02,Wunderground v.1.15,2013-02-01 13:12:00,
2013-02-01 08:18:00,25.2,7.8,30.02,NNE,17,26.0,35.0,47,0.00,,,0.02,Wunderground v.1.15,2013-02-01 13:18:00,
2013-02-01 08:23:00,25.3,7.4,30.02,WSW,244,25.0,30.0,46,0.00,,,0.02,Wunderground v.1.15,2013-02-01 13:23:00,
2013-02-01 08:28:00,25.3,7.4,30.04,NW,308,23.0,36.0,46,0.00,,,0.02,Wunderground v.1.15,2013-02-01 13:28:00,
2013-02-01 08:33:00,25.3,7.9,30.04,West,273,25.0,27.0,47,0.00,,,0.02,Wunderground v.1.15,2013-02-01 13:33:00,
2013-02-01 08:38:00,25.2,7.3,30.04,NW,321,22.0,29.0,46,0.00,,,0.02,Wunderground v.1.15,2013-02-01 13:38:00,
2013-02-01 08:43:00,25.2,7.3,30.05,WNW,300,20.0,37.0,46,0.00,,,0.02,Wunderground v.1.15,2013-02-01 13:43:00,
2013-02-01 08:48:00,25.4,7.5,30.05,NW,321,22.0,40.0,46,0.00,,,0.02,Wunderground v.1.15,2013-02-01 13:48:00,
2013-02-01 08:54:00,25.6,7.2,30.05,WNW,287,18.0,27.0,45,0.00,,,0.02,Wunderground v.1.15,2013-02-01 13:54:00,
2013-02-01 08:59:00,25.7,7.3,30.06,WNW,296,18.0,27.0,45,0.00,,,0.02,Wunderground v.1.15,2013-02-01 13:59:00,
2013-02-01 09:04:00,25.7,7.3,30.06,NW,308,19.0,36.0,45,0.00,,,0.02,Wunderground v.1.15,2013-02-01 14:04:00,
2013-02-01 09:09:00,25.5,7.1,30.06,NW,323,19.0,36.0,45,0.00,,,0.02,Wunderground v.1.15,2013-02-01 14:09:00,
2013-02-01 09:14:00,25.8,7.8,30.06,WNW,300,19.0,32.0,46,0.00,,,0.02,Wunderground v.1.15,2013-02-01 14:14:00,
2013-02-01 09:19:00,26.1,8.1,30.06,NW,312,21.0,32.0,46,0.00,,,0.02,Wunderground v.1.15,2013-02-01 14:19:00,
2013-02-01 09:24:00,26.2,8.2,30.06,NW,311,21.0,22.0,46,0.00,,,0.02,Wunderground v.1.15,2013-02-01 14:24:00,
2013-02-01 09:29:00,26.1,8.6,30.08,NNW,342,19.0,24.0,47,0.00,,,0.02,Wunderground v.1.15,2013-02-01 14:29:00,
2013-02-01 09:34:00,26.0,9.0,30.08,NNW,331,20.0,31.0,48,0.00,,,0.02,Wunderground v.1.15,2013-02-01 14:34:00,
2013-02-01 09:39:00,25.6,9.5,30.08,NW,305,20.0,31.0,50,0.00,,,0.02,Wunderground v.1.15,2013-02-01 14:39:00,
2013-02-01 09:45:00,26.1,9.5,30.09,NNW,336,20.0,33.0,49,0.00,,,0.02,Wunderground v.1.15,2013-02-01 14:45:00,
2013-02-01 09:50:00,26.0,9.9,30.09,NW,322,25.0,26.0,50,0.00,,,0.02,Wunderground v.1.15,2013-02-01 14:50:00,
2013-02-01 09:55:00,25.6,9.5,30.09,NW,309,29.0,40.0,50,0.00,,,0.02,Wunderground v.1.15,2013-02-01 14:55:00,
2013-02-01 10:00:00,25.6,10.0,30.10,NW,312,28.0,28.0,51,0.00,,,0.02,Wunderground v.1.15,2013-02-01 15:00:00,
2013-02-01 10:05:00,25.5,10.3,30.10,NNW,329,26.0,43.0,52,0.00,,,0.02,Wunderground v.1.15,2013-02-01 15:05:00,
2013-02-01 10:10:00,25.9,11.1,30.10,NW,313,24.0,24.0,53,0.00,,,0.02,Wunderground v.1.15,2013-02-01 15:10:00,
2013-02-01 10:15:00,25.8,10.6,30.10,NNW,339,26.0,27.0,52,0.00,,,0.02,Wunderground v.1.15,2013-02-01 15:15:00,
2013-02-01 10:20:00,26.0,11.2,30.10,NW,314,25.0,25.0,53,0.00,,,0.02,Wunderground v.1.15,2013-02-01 15:20:00,
2013-02-01 10:25:00,26.2,10.5,30.10,NNW,346,20.0,30.0,51,0.00,,,0.02,Wunderground v.1.15,2013-02-01 15:25:00,
2013-02-01 10:30:00,26.6,11.3,30.11,NW,306,18.0,18.0,52,0.00,,,0.02,Wunderground v.1.15,2013-02-01 15:30:00,
2013-02-01 10:35:00,27.1,11.3,30.11,NW,306,17.0,26.0,51,0.00,,,0.02,Wunderground v.1.15,2013-02-01 15:35:00,
2013-02-01 10:41:00,27.2,10.5,30.11,North,355,19.0,23.0,49,0.00,,,0.02,Wunderground v.1.15,2013-02-01 15:41:00,
2013-02-01 10:46:00,27.6,11.4,30.12,WNW,303,16.0,23.0,50,0.00,,,0.02,Wunderground v.1.15,2013-02-01 15:46:00,
2013-02-01 10:51:00,28.2,11.5,30.12,NW,306,14.0,22.0,49,0.00,,,0.02,Wunderground v.1.15,2013-02-01 15:51:00,
2013-02-01 10:56:00,28.0,9.4,30.12,WNW,292,17.0,35.0,45,0.00,,,0.02,Wunderground v.1.15,2013-02-01 15:56:00,
2013-02-01 11:01:00,27.9,9.8,30.12,NW,320,17.0,20.0,46,0.00,,,0.02,Wunderground v.1.15,2013-02-01 16:01:00,
2013-02-01 11:06:00,28.2,10.0,30.12,WNW,299,14.0,25.0,46,0.00,,,0.02,Wunderground v.1.15,2013-02-01 16:06:00,
2013-02-01 11:11:00,28.8,10.6,30.12,NW,309,13.0,15.0,46,0.00,,,0.02,Wunderground v.1.15,2013-02-01 16:11:00,
2013-02-01 11:17:00,29.2,10.0,30.13,WNW,290,11.0,19.0,44,0.00,,,0.02,Wunderground v.1.15,2013-02-01 16:17:00,
2013-02-01 11:23:00,29.1,10.4,30.13,NNW,332,13.0,21.0,45,0.00,,,0.02,Wunderground v.1.15,2013-02-01 16:23:00,
2013-02-01 11:28:00,29.1,8.8,30.13,West,269,15.0,32.0,42,0.00,,,0.02,Wunderground v.1.15,2013-02-01 16:28:00,
2013-02-01 11:33:00,29.0,9.3,30.13,NW,309,17.0,31.0,43,0.00,,,0.02,Wunderground v.1.15,2013-02-01 16:33:00,
2013-02-01 11:38:00,29.1,8.8,30.13,West,277,18.0,31.0,42,0.00,,,0.02,Wunderground v.1.15,2013-02-01 16:38:00,
2013-02-01 11:43:00,29.7,9.4,30.13,NW,321,16.0,19.0,42,0.00,,,0.02,Wunderground v.1.15,2013-02-01 16:43:00,
2013-02-01 11:48:00,29.9,8.5,30.13,WNW,297,16.0,27.0,40,0.00,,,0.02,Wunderground v.1.15,2013-02-01 16:48:00,
2013-02-01 11:53:00,29.3,7.4,30.13,NNW,331,20.0,40.0,39,0.00,,,0.02,Wunderground v.1.15,2013-02-01 16:53:00,
2013-02-01 11:58:00,29.2,7.3,30.13,NNW,332,24.0,40.0,39,0.00,,,0.02,Wunderground v.1.15,2013-02-01 16:58:00,
2013-02-01 12:03:00,29.0,7.1,30.13,WNW,300,22.0,27.0,39,0.00,,,0.02,Wunderground v.1.15,2013-02-01 17:03:00,
2013-02-01 12:08:00,29.3,6.8,30.13,WNW,294,21.0,34.0,38,0.00,,,0.02,Wunderground v.1.15,2013-02-01 17:08:00,
2013-02-01 12:14:00,29.5,7.0,30.12,NW,318,23.0,30.0,38,0.00,,,0.02,Wunderground v.1.15,2013-02-01 17:14:00,
2013-02-01 12:19:00,29.6,7.1,30.12,WNW,298,24.0,33.0,38,0.00,,,0.02,Wunderground v.1.15,2013-02-01 17:19:00,
2013-02-01 12:24:00,29.8,6.1,30.12,NNW,327,23.0,36.0,36,0.00,,,0.02,Wunderground v.1.15,2013-02-01 17:24:00,
2013-02-01 12:29:00,30.2,7.0,30.13,NW,304,18.0,36.0,37,0.00,,,0.02,Wunderground v.1.15,2013-02-01 17:29:00,
2013-02-01 12:34:00,30.8,8.7,30.13,WNW,284,17.0,34.0,39,0.00,,,0.02,Wunderground v.1.15,2013-02-01 17:34:00,
2013-02-01 12:39:00,31.1,8.4,30.13,West,277,17.0,34.0,38,0.00,,,0.02,Wunderground v.1.15,2013-02-01 17:39:00,
2013-02-01 12:44:00,31.5,7.6,30.13,NNW,344,17.0,25.0,36,0.00,,,0.02,Wunderground v.1.15,2013-02-01 17:44:00,
2013-02-01 12:49:00,31.8,7.2,30.13,NW,315,16.0,25.0,35,0.00,,,0.02,Wunderground v.1.15,2013-02-01 17:49:00,
2013-02-01 12:54:00,31.9,7.9,30.13,NNW,329,20.0,34.0,36,0.00,,,0.02,Wunderground v.1.15,2013-02-01 17:54:00,
2013-02-01 13:00:00,31.4,7.5,30.13,North,5,21.0,21.0,36,0.00,,,0.02,Wunderground v.1.15,2013-02-01 18:00:00,
2013-02-01 13:05:00,31.8,6.6,30.13,West,268,16.0,21.0,34,0.00,,,0.02,Wunderground v.1.15,2013-02-01 18:05:00,
2013-02-01 13:10:00,32.3,7.0,30.13,NNW,334,14.0,15.0,34,0.00,,,0.02,Wunderground v.1.15,2013-02-01 18:10:00,
2013-02-01 13:15:00,32.6,8.6,30.12,WNW,285,16.0,32.0,36,0.00,,,0.02,Wunderground v.1.15,2013-02-01 18:15:00,
2013-02-01 13:21:00,32.7,6.7,30.12,NW,317,19.0,19.0,33,0.00,,,0.02,Wunderground v.1.15,2013-02-01 18:21:00,
2013-02-01 13:26:00,32.9,6.9,30.12,NW,305,20.0,24.0,33,0.00,,,0.02,Wunderground v.1.15,2013-02-01 18:26:00,
2013-02-01 13:32:00,33.2,7.2,30.12,NW,315,18.0,22.0,33,0.00,,,0.03,Wunderground v.1.15,2013-02-01 18:32:00,
2013-02-01 13:38:00,32.8,6.1,30.12,NW,314,20.0,39.0,32,0.00,,,0.03,Wunderground v.1.15,2013-02-01 18:38:00,
2013-02-01 13:43:00,32.9,6.9,30.12,NW,321,21.0,31.0,33,0.00,,,0.03,Wunderground v.1.15,2013-02-01 18:43:00,
2013-02-01 13:48:00,32.9,7.6,30.12,NW,322,19.0,31.0,34,0.00,,,0.03,Wunderground v.1.15,2013-02-01 18:48:00,
2013-02-01 13:54:00,33.2,7.2,30.12,NW,313,18.0,19.0,33,0.00,,,0.03,Wunderground v.1.15,2013-02-01 18:54:00,
2013-02-01 13:59:00,32.9,5.5,30.12,NW,311,18.0,20.0,31,0.00,,,0.03,Wunderground v.1.15,2013-02-01 18:59:00,
2013-02-01 14:04:00,32.6,5.9,30.12,NW,317,21.0,38.0,32,0.00,,,0.03,Wunderground v.1.15,2013-02-01 19:04:00,
2013-02-01 14:10:00,33.2,7.8,30.12,WNW,303,24.0,24.0,34,0.00,,,0.03,Wunderground v.1.15,2013-02-01 19:10:00,
2013-02-01 14:15:00,32.8,5.4,30.11,NW,313,24.0,37.0,31,0.00,,,0.03,Wunderground v.1.15,2013-02-01 19:15:00,
2013-02-01 14:21:00,32.9,5.5,30.11,NW,325,25.0,33.0,31,0.00,,,0.03,Wunderground v.1.15,2013-02-01 19:21:00,
2013-02-01 14:26:00,33.0,6.3,30.11,WNW,297,22.0,33.0,32,0.00,,,0.03,Wunderground v.1.15,2013-02-01 19:26:00,
2013-02-01 14:32:00,33.5,6.0,30.12,NNW,346,21.0,30.0,31,0.00,,,0.03,Wunderground v.1.15,2013-02-01 19:32:00,
2013-02-01 14:37:00,33.6,6.1,30.12,WNW,296,21.0,32.0,31,0.00,,,0.03,Wunderground v.1.15,2013-02-01 19:37:00,
2013-02-01 14:43:00,33.2,6.5,30.12,WNW,297,24.0,34.0,32,0.00,,,0.03,Wunderground v.1.15,2013-02-01 19:43:00,
2013-02-01 14:49:00,33.7,6.9,30.12,North,349,22.0,34.0,32,0.00,,,0.03,Wunderground v.1.15,2013-02-01 19:49:00,
2013-02-01 14:55:00,33.8,6.3,30.12,NW,312,21.0,25.0,31,0.00,,,0.03,Wunderground v.1.15,2013-02-01 19:55:00,
2013-02-01 15:00:00,33.5,6.7,30.12,WNW,296,23.0,24.0,32,0.00,,,0.03,Wunderground v.1.15,2013-02-01 20:00:00,
2013-02-01 15:06:00,33.2,5.1,30.12,NW,312,24.0,31.0,30,0.00,,,0.03,Wunderground v.1.15,2013-02-01 20:06:00,
2013-02-01 15:11:00,32.6,5.3,30.12,NW,326,25.0,29.0,31,0.00,,,0.03,Wunderground v.1.15,2013-02-01 20:11:00,
2013-02-01 15:16:00,32.4,5.8,30.12,NW,313,27.0,40.0,32,0.00,,,0.03,Wunderground v.1.15,2013-02-01 20:16:00,
2013-02-01 15:22:00,33.0,7.0,30.12,NNW,333,28.0,28.0,33,0.00,,,0.03,Wunderground v.1.15,2013-02-01 20:22:00,
2013-02-01 15:28:00,32.8,5.4,30.12,NW,313,24.0,31.0,31,0.00,,,0.03,Wunderground v.1.15,2013-02-01 20:28:00,
2013-02-01 15:34:00,32.8,4.0,30.12,WNW,300,24.0,31.0,29,0.00,,,0.03,Wunderground v.1.15,2013-02-01 20:34:00,
2013-02-01 15:39:00,32.3,2.8,30.12,NW,310,24.0,34.0,28,0.00,,,0.03,Wunderground v.1.15,2013-02-01 20:39:00,
2013-02-01 15:45:00,32.4,3.6,30.12,NW,314,26.0,38.0,29,0.00,,,0.03,Wunderground v.1.15,2013-02-01 20:45:00,
2013-02-01 15:50:00,32.6,3.8,30.12,NW,304,23.0,24.0,29,0.00,,,0.03,Wunderground v.1.15,2013-02-01 20:50:00,
2013-02-01 15:56:00,32.3,3.5,30.12,NW,314,23.0,30.0,29,0.00,,,0.03,Wunderground v.1.15,2013-02-01 20:56:00,
2013-02-01 16:01:00,32.2,3.4,30.13,NW,311,24.0,31.0,29,0.00,,,0.03,Wunderground v.1.15,2013-02-01 21:01:00,
2013-02-01 16:07:00,31.9,3.2,30.13,NW,317,25.0,31.0,29,0.00,,,0.03,Wunderground v.1.15,2013-02-01 21:07:00,
2013-02-01 16:12:00,32.2,3.4,30.14,NW,320,21.0,30.0,29,0.00,,,0.03,Wunderground v.1.15,2013-02-01 21:12:00,
2013-02-01 16:18:00,32.0,3.3,30.14,NW,315,20.0,30.0,29,0.00,,,0.03,Wunderground v.1.15,2013-02-01 21:18:00,
2013-02-01 16:23:00,31.6,2.9,30.14,NW,316,22.0,28.0,29,0.00,,,0.03,Wunderground v.1.15,2013-02-01 21:23:00,
2013-02-01 16:29:00,31.2,3.3,30.15,NW,317,18.0,28.0,30,0.00,,,0.03,Wunderground v.1.15,2013-02-01 21:29:00,
2013-02-01 16:34:00,31.0,4.5,30.15,NW,304,16.0,24.0,32,0.00,,,0.03,Wunderground v.1.15,2013-02-01 21:34:00,
2013-02-01 16:40:00,30.8,3.7,30.15,NNW,339,18.0,18.0,31,0.00,,,0.03,Wunderground v.1.15,2013-02-01 21:40:00,
2013-02-01 16:45:00,30.7,4.3,30.16,NW,316,18.0,22.0,32,0.00,,,0.03,Wunderground v.1.15,2013-02-01 21:45:00,
2013-02-01 16:50:00,30.8,4.4,30.16,NNW,329,14.0,17.0,32,0.00,,,0.03,Wunderground v.1.15,2013-02-01 21:50:00,
2013-02-01 16:56:00,31.0,3.8,30.16,WNW,296,16.0,24.0,31,0.00,,,0.03,Wunderground v.1.15,2013-02-01 21:56:00,
2013-02-01 17:01:00,30.8,3.7,30.15,NW,317,17.0,18.0,31,0.00,,,0.03,Wunderground v.1.15,2013-02-01 22:01:00,
2013-02-01 17:06:00,30.8,4.4,30.15,NNW,343,16.0,18.0,32,0.00,,,0.03,Wunderground v.1.15,2013-02-01 22:06:00,
2013-02-01 17:11:00,30.6,4.2,30.15,WNW,296,15.0,23.0,32,0.00,,,0.03,Wunderground v.1.15,2013-02-01 22:11:00,
2013-02-01 17:17:00,30.3,3.9,30.16,NW,317,15.0,23.0,32,0.00,,,0.03,Wunderground v.1.15,2013-02-01 22:17:00,
2013-02-01 17:22:00,29.9,3.6,30.16,NW,317,15.0,20.0,32,0.00,,,0.03,Wunderground v.1.15,2013-02-01 22:22:00,
2013-02-01 17:28:00,29.4,3.1,30.16,NW,306,17.0,24.0,32,0.00,,,0.03,Wunderground v.1.15,2013-02-01 22:28:00,
2013-02-01 17:33:00,29.1,2.9,30.16,NW,304,19.0,19.0,32,0.00,,,0.03,Wunderground v.1.15,2013-02-01 22:33:00,
2013-02-01 17:38:00,28.8,3.3,30.16,NW,323,20.0,22.0,33,0.00,,,0.03,Wunderground v.1.15,2013-02-01 22:38:00,
2013-02-01 17:44:00,28.5,3.6,30.16,NW,309,18.0,20.0,34,0.00,,,0.03,Wunderground v.1.15,2013-02-01 22:44:00,
2013-02-01 17:49:00,28.4,3.6,30.16,NW,311,16.0,20.0,34,0.00,,,0.03,Wunderground v.1.15,2013-02-01 22:49:00,
2013-02-01 17:54:00,28.1,3.3,30.16,WNW,302,15.0,19.0,34,0.00,,,0.03,Wunderground v.1.15,2013-02-01 22:54:00,
2013-02-01 18:00:00,27.9,3.7,30.16,NNW,347,16.0,18.0,35,0.00,,,0.03,Wunderground v.1.15,2013-02-01 23:00:00,
2013-02-01 18:05:00,27.8,3.6,30.16,NNW,333,16.0,18.0,35,0.00,,,0.03,Wunderground v.1.15,2013-02-01 23:05:00,
2013-02-01 18:10:00,27.6,3.5,30.16,WNW,294,14.0,18.0,35,0.00,,,0.03,Wunderground v.1.15,2013-02-01 23:10:00,
2013-02-01 18:16:00,27.4,3.9,30.16,NW,315,13.0,18.0,36,0.00,,,0.03,Wunderground v.1.15,2013-02-01 23:16:00,
2013-02-01 18:21:00,27.3,3.8,30.16,WNW,297,11.0,13.0,36,0.00,,,0.03,Wunderground v.1.15,2013-02-01 23:21:00,
2013-02-01 18:26:00,27.1,3.6,30.16,NW,315,9.0,15.0,36,0.00,,,0.03,Wunderground v.1.15,2013-02-01 23:26:00,
2013-02-01 18:32:00,26.9,4.1,30.17,NW,311,8.0,15.0,37,0.00,,,0.03,Wunderground v.1.15,2013-02-01 23:32:00,
2013-02-01 18:37:00,26.7,3.9,30.17,NW,317,10.0,16.0,37,0.00,,,0.03,Wunderground v.1.15,2013-02-01 23:37:00,
2013-02-01 18:42:00,26.5,4.3,30.18,NW,321,11.0,15.0,38,0.00,,,0.03,Wunderground v.1.15,2013-02-01 23:42:00,
2013-02-01 18:48:00,26.3,4.1,30.18,NW,311,10.0,15.0,38,0.00,,,0.03,Wunderground v.1.15,2013-02-01 23:48:00,
2013-02-01 18:53:00,26.2,4.6,30.18,NW,309,10.0,15.0,39,0.00,,,0.03,Wunderground v.1.15,2013-02-01 23:53:00,
2013-02-01 18:58:00,26.1,4.5,30.19,NW,309,9.0,15.0,39,0.00,,,0.03,Wunderground v.1.15,2013-02-01 23:58:00,
2013-02-01 19:04:00,26.0,4.4,30.19,NW,309,7.0,15.0,39,0.00,,,0.03,Wunderground v.1.15,2013-02-02 00:04:00,
2013-02-01 19:09:00,25.8,4.2,30.19,NW,309,4.0,15.0,39,0.00,,,0.03,Wunderground v.1.15,2013-02-02 00:09:00,
2013-02-01 19:14:00,25.6,4.6,30.19,NW,308,4.0,15.0,40,0.00,,,0.03,Wunderground v.1.15,2013-02-02 00:14:00,
2013-02-01 19:19:00,25.5,4.5,30.19,NW,308,4.0,15.0,40,0.00,,,0.03,Wunderground v.1.15,2013-02-02 00:19:00,
2013-02-01 19:25:00,25.3,4.3,30.19,WNW,301,8.0,19.0,40,0.00,,,0.03,Wunderground v.1.15,2013-02-02 00:25:00,
2013-02-01 19:30:00,25.2,4.8,30.20,NNW,332,12.0,12.0,41,0.00,,,0.03,Wunderground v.1.15,2013-02-02 00:30:00,
2013-02-01 19:36:00,25.1,4.7,30.20,NW,323,12.0,18.0,41,0.00,,,0.03,Wunderground v.1.15,2013-02-02 00:36:00,
2013-02-01 19:41:00,25.0,5.1,30.20,WNW,301,12.0,15.0,42,0.00,,,0.03,Wunderground v.1.15,2013-02-02 00:41:00,
2013-02-01 19:47:00,24.9,5.0,30.20,WNW,292,10.0,15.0,42,0.00,,,0.03,Wunderground v.1.15,2013-02-02 00:47:00,
2013-02-01 19:52:00,24.8,4.9,30.20,WNW,290,10.0,15.0,42,0.00,,,0.03,Wunderground v.1.15,2013-02-02 00:52:00,
2013-02-01 19:57:00,24.7,4.8,30.20,WNW,288,10.0,16.0,42,0.00,,,0.03,Wunderground v.1.15,2013-02-02 00:57:00,
2013-02-01 20:02:00,24.6,5.3,30.20,NW,316,9.0,15.0,43,0.00,,,0.03,Wunderground v.1.15,2013-02-02 01:02:00,
2013-02-01 20:08:00,24.5,5.2,30.20,WNW,286,11.0,15.0,43,0.00,,,0.03,Wunderground v.1.15,2013-02-02 01:08:00,
2013-02-01 20:13:00,24.3,5.0,30.20,NW,317,11.0,15.0,43,0.00,,,0.03,Wunderground v.1.15,2013-02-02 01:13:00,
2013-02-01 20:18:00,24.3,4.5,30.20,NW,311,12.0,19.0,42,0.00,,,0.03,Wunderground v.1.15,2013-02-02 01:18:00,
2013-02-01 20:24:00,24.2,4.4,30.20,WNW,293,13.0,16.0,42,0.00,,,0.03,Wunderground v.1.15,2013-02-02 01:24:00,
2013-02-01 20:30:00,24.1,3.8,30.20,WNW,289,13.0,15.0,41,0.00,,,0.03,Wunderground v.1.15,2013-02-02 01:30:00,
2013-02-01 20:35:00,24.0,4.2,30.20,NNW,328,14.0,16.0,42,0.00,,,0.03,Wunderground v.1.15,2013-02-02 01:35:00,
2013-02-01 20:40:00,23.9,4.1,30.20,NW,317,14.0,15.0,42,0.00,,,0.03,Wunderground v.1.15,2013-02-02 01:40:00,
2013-02-01 20:45:00,23.8,4.5,30.20,WNW,294,13.0,19.0,43,0.00,,,0.03,Wunderground v.1.15,2013-02-02 01:45:00,
2013-02-01 20:51:00,23.7,4.4,30.20,WNW,299,12.0,15.0,43,0.00,,,0.03,Wunderground v.1.15,2013-02-02 01:51:00,
2013-02-01 20:56:00,23.6,4.8,30.20,WNW,301,13.0,17.0,44,0.00,,,0.03,Wunderground v.1.15,2013-02-02 01:56:00,
2013-02-01 21:01:00,23.5,4.8,30.20,NW,311,14.0,15.0,44,0.00,,,0.03,Wunderground v.1.15,2013-02-02 02:01:00,
2013-02-01 21:07:00,23.4,5.2,30.20,NW,323,13.0,22.0,45,0.00,,,0.03,Wunderground v.1.15,2013-02-02 02:07:00,
2013-02-01 21:12:00,23.3,5.5,30.21,WNW,291,12.0,15.0,46,0.00,,,0.03,Wunderground v.1.15,2013-02-02 02:12:00,
2013-02-01 21:17:00,23.2,5.0,30.21,NW,312,10.0,15.0,45,0.00,,,0.03,Wunderground v.1.15,2013-02-02 02:17:00,
2013-02-01 21:23:00,23.1,5.4,30.21,NW,315,9.0,15.0,46,0.00,,,0.03,Wunderground v.1.15,2013-02-02 02:23:00,
2013-02-01 21:28:00,22.9,5.2,30.21,WNW,294,9.0,15.0,46,0.00,,,0.03,Wunderground v.1.15,2013-02-02 02:28:00,
2013-02-01 21:33:00,22.9,5.6,30.21,NW,314,10.0,15.0,47,0.00,,,0.03,Wunderground v.1.15,2013-02-02 02:33:00,
2013-02-01 21:39:00,22.8,5.6,30.21,WNW,295,11.0,15.0,47,0.00,,,0.03,Wunderground v.1.15,2013-02-02 02:39:00,
2013-02-01 21:44:00,22.7,5.5,30.21,WNW,290,10.0,15.0,47,0.00,,,0.03,Wunderground v.1.15,2013-02-02 02:44:00,
2013-02-01 21:50:00,22.7,5.9,30.21,WNW,287,11.0,18.0,48,0.00,,,0.03,Wunderground v.1.15,2013-02-02 02:50:00,
2013-02-01 21:55:00,22.6,5.8,30.21,NW,316,11.0,18.0,48,0.00,,,0.03,Wunderground v.1.15,2013-02-02 02:55:00,
2013-02-01 22:00:00,22.5,5.7,30.21,NW,304,12.0,15.0,48,0.00,,,0.03,Wunderground v.1.15,2013-02-02 03:00:00,
2013-02-01 22:06:00,22.5,6.2,30.21,NW,310,12.0,15.0,49,0.00,,,0.03,Wunderground v.1.15,2013-02-02 03:06:00,
2013-02-01 22:11:00,22.5,6.2,30.21,WNW,294,12.0,15.0,49,0.00,,,0.03,Wunderground v.1.15,2013-02-02 03:11:00,
2013-02-01 22:17:00,22.4,6.5,30.20,WNW,292,12.0,18.0,50,0.00,,,0.03,Wunderground v.1.15,2013-02-02 03:17:00,
2013-02-01 22:22:00,22.4,6.5,30.20,WNW,294,10.0,15.0,50,0.00,,,0.03,Wunderground v.1.15,2013-02-02 03:22:00,
2013-02-01 22:28:00,22.2,6.4,30.21,WNW,298,9.0,15.0,50,0.00,,,0.03,Wunderground v.1.15,2013-02-02 03:28:00,
2013-02-01 22:33:00,22.2,6.8,30.21,West,280,10.0,15.0,51,0.00,,,0.03,Wunderground v.1.15,2013-02-02 03:33:00,
2013-02-01 22:38:00,22.1,6.7,30.21,WNW,292,9.0,15.0,51,0.00,,,0.03,Wunderground v.1.15,2013-02-02 03:38:00,
2013-02-01 22:44:00,22.0,7.0,30.22,WNW,292,9.0,15.0,52,0.00,,,0.03,Wunderground v.1.15,2013-02-02 03:44:00,
2013-02-01 22:49:00,22.0,7.0,30.22,WNW,290,10.0,15.0,52,0.00,,,0.03,Wunderground v.1.15,2013-02-02 03:49:00,
2013-02-01 22:55:00,22.0,7.0,30.22,NW,319,9.0,15.0,52,0.00,,,0.03,Wunderground v.1.15,2013-02-02 03:55:00,
2013-02-01 23:01:00,21.9,6.9,30.22,West,277,7.0,15.0,52,0.00,,,0.03,Wunderground v.1.15,2013-02-02 04:01:00,
2013-02-01 23:06:00,21.8,6.8,30.22,WNW,286,6.0,15.0,52,0.00,,,0.03,Wunderground v.1.15,2013-02-02 04:06:00,
2013-02-01 23:11:00,21.8,7.3,30.22,WNW,282,5.0,6.0,53,0.00,,,0.03,Wunderground v.1.15,2013-02-02 04:11:00,
2013-02-01 23:17:00,21.7,7.2,30.24,WNW,282,5.0,15.0,53,0.00,,,0.03,Wunderground v.1.15,2013-02-02 04:17:00,
2013-02-01 23:22:00,21.7,7.2,30.24,WNW,282,4.0,15.0,53,0.00,,,0.03,Wunderground v.1.15,2013-02-02 04:22:00,
2013-02-01 23:28:00,21.6,7.1,30.23,WNW,282,3.0,15.0,53,0.00,,,0.03,Wunderground v.1.15,2013-02-02 04:28:00,
2013-02-01 23:33:00,21.5,7.0,30.23,WNW,282,4.0,15.0,53,0.00,,,0.03,Wunderground v.1.15,2013-02-02 04:33:00,
2013-02-01 23:39:00,21.4,6.9,30.23,WNW,282,1.0,15.0,53,0.00,,,0.03,Wunderground v.1.15,2013-02-02 04:39:00,
2013-02-01 23:44:00,21.3,6.8,30.24,WNW,282,0.0,15.0,53,0.00,,,0.03,Wunderground v.1.15,2013-02-02 04:44:00,
2013-02-01 23:49:00,21.2,7.1,30.24,WNW,282,0.0,15.0,54,0.00,,,0.03,Wunderground v.1.15,2013-02-02 04:49:00,
2013-02-01 23:54:00,21.2,7.1,30.24,West,278,0.0,15.0,54,0.00,,,0.03,Wunderground v.1.15,2013-02-02 04:54:00,
2013-02-01 23:59:00,21.1,7.4,30.23,West,278,0.0,15.0,55,0.00,,,0.00,Wunderground v.1.15,2013-02-02 04:59:00,